STARLINK-11296 [DTC]

Last updated on Thu Nov 21 2024 00:02:05 GMT+0000 (Coordinated Universal Time)

1 61699U 24195N 24325.56016764 -.00079787 00000+0 -35163-3 0 9993 2 61699 53.1622 204.4841 0003140 160.5282 199.5863 15.83838928 4557
UTC large
Height (km)
Speed (km/s)
/
Latitude / Longitude
Inclination (degrees)
Orbital Period (minutes)
Azimuth
Elevation
Range (km)
Doppler Factor

Next 0 passes for location: London (51.5072 / 0.1276)

Sorry there are no passes over London.